Temp_Advection
nan nan nan nan nan nan nan nan nan nan nan nan nan nan nan nan nan nan nan nan nan nan nan nan nan nan nan nan nan nan nan nan nan nan nan nan nan nan nan nan nan nan nan nan nan nan nan nan nan nan nan nan nan nan nan nan nan nan nan nan nan nan nan nan nan nan nan nan nan
nan 2 2 1 1 1 1 1 2 2 1 0 -0 -1 -1 -1 -1 -0 -0 -0 -0 0 0 0 1 1 0 0 0 0 0 0 0 -0 -0 0 0 0 0 0 0 0 0 0 0 0 0 0 0 0 -0 -0 -0 -0 -1 -1 -1 -0 -0 0 0 1 1 1 0 0 1 1 nan
nan 1 1 1 1 1 0 -1 -0 -0 -1 -1 0 0 0 -0 -1 -0 0 1 1 1 0 0 0 0 0 0 0 0 0 0 -0 0 0 0 0 0 0 0 0 -0 -0 0 0 0 0 0 0 -0 -1 -1 -1 -1 -1 -0 0 0 1 0 1 1 1 1 1 1 1 1 nan
nan 2 2 1 0 0 0 -1 -1 -1 -2 -1 0 1 0 -1 -0 0 1 1 1 0 0 0 -0 0 0 0 0 0 0 0 0 0 0 0 0 0 0 -0 -0 0 0 0 0 0 -0 -1 -1 -1 -1 -1 -1 -0 -0 0 0 1 1 1 1 1 1 1 1 1 1 1 nan
nan 3 1 -0 -1 -1 -2 -2 -2 0 1 0 -0 -1 -2 -1 -0 0 0 1 0 0 -0 -0 0 0 0 0 0 0 0 0 0 0 0 0 0 -0 -0 0 1 1 0 -0 -1 -1 -1 -1 -1 -1 -1 -0 -0 0 0 0 1 1 1 1 1 1 1 1 1 1 1 1 nan
nan 2 1 -1 -1 -1 -1 -1 -0 2 2 2 1 -1 -1 -1 -1 -1 -0 -0 -0 -0 -0 -0 -0 0 0 0 0 0 0 0 0 0 0 0 -0 -0 1 1 0 -1 -1 -1 -1 -1 -1 -1 -0 -0 -0 0 0 0 0 0 0 1 1 1 1 1 1 1 1 1 1 1 nan
nan 1 1 0 -0 -0 0 1 2 2 1 1 0 -1 -1 -1 -1 -0 -0 -0 -1 -1 -1 -0 -0 -0 0 0 -0 -0 -0 0 0 0 0 0 1 1 1 -1 -2 -1 -1 -1 -1 -1 -0 -0 0 0 0 0 0 0 0 0 0 0 1 1 1 1 1 1 1 1 1 1 nan
nan 1 1 1 0 0 0 1 1 1 0 0 0 0 0 0 0 -0 -1 -1 -1 -1 -0 -0 0 0 0 -0 -0 -0 0 0 0 0 1 2 1 0 -1 -2 -1 -1 -1 -0 -0 -0 0 0 0 0 0 0 0 0 0 0 0 0 0 0 1 1 1 1 1 1 1 1 nan
nan 1 1 1 0 0 0 0 0 0 1 1 1 0 0 0 -0 -1 -1 -1 -1 -0 0 0 0 0 0 -0 -0 -0 0 1 2 2 2 1 -0 -2 -2 -1 -1 -0 -0 -0 0 0 0 0 0 0 0 0 0 0 0 0 0 0 0 0 1 1 1 1 1 1 1 1 nan
nan 1 1 1 1 1 0 0 0 0 0 0 0 -0 -0 -1 -1 -1 -1 -1 -0 0 0 0 0 0 0 0 0 1 2 3 3 1 0 -2 -3 -2 -1 -1 -0 -0 0 0 0 0 0 0 0 0 0 0 0 0 0 0 0 0 0 0 1 1 1 1 1 1 1 1 nan
nan 0 1 1 1 0 0 0 0 0 -0 -0 -1 -1 -1 -1 -0 -0 -0 -0 0 0 0 1 1 2 2 1 2 2 2 1 0 -1 -2 -2 -2 -1 -0 -0 0 0 0 0 0 0 1 0 0 0 0 0 0 0 0 0 0 0 0 0 1 1 1 1 1 1 1 1 nan
nan 0 0 0 0 -0 -0 -0 -0 -0 -0 -0 -0 -0 0 0 0 -0 -0 -0 0 1 1 2 3 3 1 1 1 1 -0 -1 -1 -1 -1 -1 -1 -0 -0 0 0 0 0 0 0 0 0 0 0 0 0 0 0 0 0 0 0 0 0 0 0 0 1 1 1 1 1 1 nan
nan 0 0 -0 -0 -0 -0 -0 -0 -0 -0 0 0 0 0 0 0 -0 -0 0 1 1 1 2 2 1 0 -0 -1 -1 -1 -1 -1 -1 -0 -0 -0 0 0 0 0 0 0 0 0 0 0 0 0 0 0 0 0 0 0 0 0 -0 -0 -0 -0 0 0 1 1 1 1 1 nan
nan 0 0 0 0 -0 0 0 0 0 0 1 0 0 0 1 1 0 -0 -0 0 1 1 1 1 -0 -1 -1 -1 -1 -0 -0 -0 -0 0 0 0 0 0 0 0 0 0 0 0 0 0 0 0 0 0 0 0 0 0 0 0 -0 -0 -0 -0 -0 0 1 1 1 1 1 nan
nan 1 1 0 0 0 0 0 0 0 1 1 1 1 1 1 1 1 0 0 0 0 0 -0 -0 -1 -1 -0 -0 0 0 0 0 0 0 0 0 0 0 0 0 0 0 0 0 0 0 0 0 0 0 0 0 0 0 0 0 -0 -0 -0 -0 -0 0 1 1 1 1 1 nan
nan 1 1 1 1 1 1 1 0 0 0 1 1 1 1 1 0 0 0 0 -0 -0 -0 -0 -0 -0 0 0 0 0 0 0 0 0 0 0 0 0 0 0 0 0 0 0 0 0 0 0 0 0 0 0 0 0 0 0 0 0 -0 -0 -0 0 1 1 1 1 1 1 nan
nan 1 1 1 1 1 1 1 0 0 0 0 0 0 0 0 0 0 0 -0 -0 -0 0 0 0 0 1 1 0 0 0 0 0 0 0 0 0 0 0 0 0 0 0 0 0 0 0 0 0 0 0 0 0 0 0 0 0 0 0 -0 0 0 1 1 1 1 1 0 nan
nan 1 1 1 1 1 1 1 0 0 0 0 0 0 0 0 0 0 0 0 0 0 0 1 1 1 1 0 0 0 0 0 0 0 0 0 0 0 0 0 0 0 0 0 0 0 0 1 0 0 0 0 0 0 0 0 0 0 0 0 0 0 1 1 1 1 0 0 nan
nan 1 1 1 1 1 0 0 0 0 0 0 0 0 0 0 0 0 0 0 0 0 1 1 0 0 0 0 0 -0 0 0 0 0 0 0 0 0 0 0 0 0 0 0 0 0 0 0 1 1 0 0 0 0 0 0 0 0 0 0 0 0 0 0 0 0 0 0 nan
nan 1 1 1 1 1 0 0 0 0 0 0 0 0 0 0 0 0 0 0 0 0 0 0 0 0 0 0 -0 0 0 0 0 0 0 0 0 0 0 0 0 0 0 0 0 0 0 0 0 1 1 1 0 0 1 1 0 0 0 0 0 0 0 0 0 0 0 0 nan
nan 1 1 1 0 0 0 0 0 0 0 0 0 0 0 0 0 0 0 0 0 0 0 0 0 0 0 0 0 0 -0 -0 0 0 0 0 0 0 -0 0 0 0 0 0 0 0 0 0 0 1 1 1 1 1 1 1 1 1 0 0 0 0 0 0 0 0 0 0 nan
nan 1 0 0 0 0 0 0 0 0 0 0 0 0 0 0 0 0 0 0 0 0 0 0 0 0 0 0 0 0 -0 -0 -0 0 0 0 0 0 0 0 0 0 0 0 0 0 0 0 1 1 1 1 1 1 1 1 1 1 1 1 0 0 0 0 0 0 0 -0 nan
nan 0 0 0 0 0 0 0 0 0 0 0 0 0 0 0 0 0 0 0 0 0 0 -0 0 0 0 0 0 -0 -0 -0 -0 -0 0 0 0 0 0 0 0 0 0 0 0 1 1 1 1 1 1 1 1 1 1 1 1 1 1 0 0 0 0 0 0 -0 0 -0 nan
nan 0 0 0 0 0 0 0 0 0 0 0 0 0 0 0 0 0 -0 0 -0 -0 -0 0 0 0 0 0 -0 -0 -0 -0 -0 -0 -0 0 0 0 0 0 0 0 0 0 1 1 1 1 1 1 1 1 1 1 1 1 1 1 0 0 0 0 -0 0 -0 -0 -0 -0 nan
nan 0 0 0 0 0 0 0 0 0 0 0 0 0 0 -0 -0 -0 -0 -0 -0 0 0 0 0 0 0 0 -0 0 -0 -0 -0 -0 -0 -0 -0 -0 -0 -0 0 0 0 1 1 1 1 1 1 1 1 1 1 1 1 1 1 0 0 0 0 0 -0 -0 -0 -0 -0 -0 nan
nan -0 -0 -0 0 0 -0 0 0 0 0 0 0 0 -0 -0 -0 0 0 0 0 0 0 0 0 0 0 0 0 -0 0 -0 -0 -0 -0 -0 -0 -0 -0 -0 -0 0 0 0 1 1 1 1 2 2 2 1 1 1 1 1 0 0 0 -0 -0 -0 -0 -0 -1 -0 -0 -0 nan
nan -0 -0 0 0 -0 0 0 0 0 0 0 -0 -0 -0 0 0 0 0 0 0 0 0 0 0 0 0 0 0 0 -0 -0 -0 -0 -0 -0 -0 -0 -0 -0 -0 -0 0 0 1 1 1 1 1 1 2 2 2 1 1 0 0 -0 -0 -0 -0 -0 -0 -0 -1 -0 -0 -0 nan
nan -0 -0 0 0 0 0 -0 -0 -0 -0 -0 0 0 0 0 0 0 0 0 0 0 0 0 0 0 0 0 0 0 -0 -0 -0 -0 -0 -0 -0 -0 0 0 0 0 0 0 0 1 1 1 1 1 1 2 2 1 1 0 -0 -0 -0 -0 -0 -0 -0 -0 -0 -0 0 0 nan
nan 0 0 0 -0 -0 -0 -0 -0 -0 0 0 0 0 0 0 0 0 0 0 0 0 0 0 0 0 0 0 0 0 -0 -0 -0 -0 -0 -0 -0 -0 -0 0 0 0 0 0 1 1 2 2 1 1 1 1 2 2 1 0 -0 -1 -1 -1 -0 -0 -0 -0 0 0 0 0 nan
nan 0 0 0 0 -0 -0 -0 0 0 0 0 0 0 0 0 0 0 0 0 0 0 0 0 0 0 0 0 0 0 -0 -0 -0 -0 -0 -0 -0 -0 0 0 0 -0 0 0 1 1 2 2 2 2 1 1 1 1 1 0 -0 -1 -1 -0 -0 -0 0 0 0 0 1 1 nan
nan 0 0 0 0 -0 0 0 0 0 0 0 0 0 0 0 0 0 0 0 0 0 0 0 0 0 0 0 0 0 -0 -0 -0 -0 -1 -1 -0 -0 0 0 -0 -0 -0 0 1 1 2 2 3 2 1 0 0 0 0 -0 -1 -1 -0 0 0 0 0 1 1 1 1 1 nan
nan 0 0 0 0 0 0 0 0 0 0 0 0 0 0 0 0 0 0 0 0 0 0 0 0 0 0 0 -0 -0 -0 -0 -0 -1 -1 -1 -0 -0 0 -0 -0 -0 -1 -0 1 1 2 3 3 3 1 -0 -1 -0 -0 -0 -0 -0 0 0 0 0 0 1 1 1 1 1 nan
nan 0 0 0 0 0 0 0 0 0 0 0 0 0 0 0 0 0 0 0 0 0 0 0 0 0 0 0 -0 -0 -0 -0 -0 -1 -1 -1 -0 -0 0 0 -0 -0 -0 -0 1 1 2 2 2 2 0 -1 -1 -0 -0 -0 0 0 0 0 0 0 0 1 1 1 1 1 nan
nan 0 0 0 0 0 0 0 0 0 0 -0 0 0 0 0 1 1 1 1 0 0 0 0 0 0 0 0 -0 -0 -0 -0 -1 -1 -0 -0 -0 -0 0 0 -0 -0 -0 0 1 2 2 2 1 0 -1 -1 -1 -0 0 0 0 1 0 0 0 0 1 1 1 1 1 1 nan
nan 0 0 0 0 0 0 0 -0 -0 -0 -0 0 0 0 1 1 1 1 1 0 0 0 0 0 0 0 0 -0 -0 -0 -1 -0 -0 -0 -0 -0 0 0 0 0 -0 0 1 1 1 1 1 1 -0 -1 -1 0 0 1 1 1 0 0 0 0 1 1 1 1 1 0 0 nan
nan 0 0 0 0 0 0 -0 -0 -0 -0 -0 0 0 1 1 1 1 1 0 0 0 0 0 0 0 0 -0 -0 -0 -0 -0 -0 -0 -0 0 0 0 1 1 0 0 1 1 1 1 1 1 0 -1 -1 -0 1 1 0 0 0 0 0 0 0 0 0 0 0 0 0 0 nan
nan 0 0 0 0 0 0 -0 -0 -0 -0 0 0 1 1 1 1 1 0 0 0 0 0 0 0 0 0 -0 -0 -0 -0 -0 -0 -0 0 0 1 1 1 1 1 1 1 1 1 1 1 0 -1 -1 0 1 1 0 0 0 -0 -0 -0 0 0 0 0 0 0 0 0 0 nan
nan 0 0 0 0 0 -0 -0 -0 -0 0 0 1 1 1 1 1 1 0 0 0 0 0 0 0 0 0 -0 -0 -0 -0 -0 -0 -0 0 1 1 1 1 1 1 1 1 1 0 1 0 -1 -1 -0 1 1 1 0 0 -0 -0 -0 -0 0 0 0 0 0 0 0 0 0 nan
nan -0 0 0 -0 -0 -0 -0 -0 0 0 1 1 1 1 1 1 1 1 0 0 0 0 0 0 0 0 -0 -0 -0 -0 -0 -0 0 0 1 1 1 1 1 1 1 1 1 1 0 -0 -1 -0 1 1 1 0 0 -0 -0 -0 -0 -0 0 0 0 0 0 0 0 0 1 nan
nan 0 -0 -0 -0 -0 -0 -0 0 0 1 1 1 1 1 1 1 1 0 0 0 0 0 0 0 -0 -0 -0 -0 -0 -0 0 0 0 1 1 0 1 1 1 1 1 1 1 1 -0 -1 -1 0 1 1 0 0 -0 -0 -0 -0 -0 0 0 0 0 0 0 0 0 0 1 nan
nan nan nan nan nan nan nan nan nan nan nan nan nan nan nan nan nan nan nan nan nan nan nan nan nan nan nan nan nan nan nan nan nan nan nan nan nan nan nan nan nan nan nan nan nan nan nan nan nan nan nan nan nan nan nan nan nan nan nan nan nan nan nan nan nan nan nan nan nan
Wind_Speed
37 34 31 29 28 28 27 28 28 24 17 11 8 9 11 15 19 22 24 24 24 24 24 23 23 23 23 23 23 23 23 24 24 25 25 24 23 21 21 22 23 23 24 25 26 26 27 27 28 28 29 29 30 31 31 32 32 33 33 33 33 33 33 33 32 32 31 31 30
33 29 24 20 19 18 18 19 19 16 12 8 4 5 9 13 17 22 25 26 26 26 27 26 26 25 24 24 24 24 24 24 25 24 24 23 22 22 23 24 25 25 26 26 27 27 28 28 29 29 30 30 31 32 32 32 32 31 31 30 30 29 29 29 29 29 28 28 28
30 26 20 12 7 7 11 13 15 15 16 14 12 13 16 19 21 25 29 29 29 29 30 29 29 27 26 25 25 25 25 25 25 24 24 24 24 24 25 26 27 26 26 26 27 28 28 29 30 30 31 31 31 31 30 29 28 28 27 26 26 26 26 26 26 26 26 26 26
29 26 20 12 6 6 10 13 16 19 22 22 21 22 25 28 30 31 32 31 31 31 31 30 30 29 28 27 26 26 26 25 25 25 25 25 25 27 28 28 27 26 26 27 28 28 29 29 30 30 30 29 28 28 27 27 26 25 25 25 25 25 25 25 25 25 26 26 26
32 27 20 14 10 10 11 12 16 23 29 28 26 24 25 27 29 30 31 31 31 31 31 30 29 29 28 27 27 27 26 26 26 25 25 26 28 29 29 27 26 25 26 27 28 28 28 28 28 27 27 27 26 26 26 26 25 25 25 25 25 25 25 25 25 25 25 26 26
33 29 23 17 15 16 18 18 21 27 31 30 27 24 22 22 24 26 28 29 30 30 29 29 28 28 28 27 27 27 27 26 26 26 27 29 30 29 27 25 25 26 27 27 27 27 26 26 26 25 25 26 26 26 26 26 25 25 25 25 24 25 25 25 25 25 25 26 26
34 32 28 23 20 21 24 27 29 31 31 30 28 26 24 24 25 26 27 28 29 29 29 29 28 28 27 27 26 26 27 27 28 29 31 31 30 27 26 25 26 26 27 26 25 25 25 25 25 25 25 25 26 26 26 26 26 26 25 25 25 24 24 24 25 25 25 26 26
33 32 30 28 26 26 27 29 30 30 30 30 28 27 26 26 26 27 28 28 29 30 30 30 30 29 28 27 28 28 29 31 32 33 32 30 27 25 25 26 26 26 25 25 24 24 24 24 25 25 25 25 26 26 26 26 26 26 26 26 25 25 24 24 24 24 25 25 26
34 32 31 30 29 28 28 29 29 29 29 29 28 27 27 26 27 27 28 29 30 30 30 30 30 30 30 31 32 33 33 34 33 31 28 25 25 25 26 26 26 25 24 24 23 24 24 24 24 25 25 25 26 26 26 26 27 27 26 26 25 25 25 24 24 24 24 25 25
32 31 30 29 29 28 28 28 29 29 29 29 28 28 28 27 28 29 30 30 30 31 31 31 32 32 33 34 34 34 33 30 26 24 23 24 25 25 25 25 24 24 23 23 23 24 24 24 24 25 25 25 26 26 26 27 27 27 27 26 26 25 25 24 24 24 24 24 24
30 29 28 28 28 28 28 29 29 29 29 29 29 29 30 30 30 31 30 30 30 31 32 32 33 33 32 31 31 29 27 24 23 23 23 24 24 24 24 24 23 23 23 23 23 24 24 24 25 25 25 25 26 26 27 27 27 27 27 27 26 25 25 24 24 24 23 23 23
29 28 28 27 28 28 29 30 30 30 30 31 31 31 32 32 32 31 31 31 31 31 31 31 29 27 26 25 25 24 24 23 23 23 24 24 24 23 23 23 22 22 23 23 24 24 25 25 25 25 25 25 26 26 26 27 27 27 27 27 26 25 25 24 24 24 24 23 22
28 28 28 27 27 28 28 29 30 30 31 32 32 32 32 32 32 32 32 31 31 30 29 28 27 25 24 23 23 22 22 22 23 23 23 23 23 22 22 22 22 23 23 24 24 24 25 25 25 25 25 25 25 25 26 26 26 26 26 26 25 25 24 24 24 24 23 22 21
28 28 27 27 27 26 26 27 27 27 28 29 29 30 30 31 31 31 31 32 31 31 29 28 27 27 25 24 23 22 22 22 22 22 22 22 22 22 22 22 22 23 23 24 24 24 24 25 25 25 25 24 24 24 25 25 25 25 25 25 24 24 23 23 23 22 21 21 21
27 27 27 26 25 25 24 24 24 24 24 25 26 27 27 28 28 28 29 29 29 29 28 27 26 25 25 23 23 22 22 22 22 21 21 21 21 21 22 22 22 23 23 23 24 24 24 24 24 24 24 24 24 24 24 24 24 24 24 23 23 23 22 22 22 21 20 20 20
27 27 26 25 24 23 22 21 21 21 22 22 23 23 24 24 25 25 25 25 26 26 25 24 24 23 22 22 22 21 21 21 21 21 21 21 21 21 22 22 22 23 23 23 23 23 23 23 23 23 23 23 23 23 23 23 23 23 23 23 23 22 22 22 20 20 19 20 20
27 26 26 24 23 22 21 20 20 20 20 21 21 21 21 21 22 22 22 22 22 22 22 22 21 21 20 20 20 20 20 20 20 20 20 21 21 21 22 22 22 23 23 23 23 23 23 23 23 23 23 23 23 23 23 23 23 23 23 22 22 22 22 21 20 19 19 20 21
27 26 25 24 22 21 20 20 19 19 19 19 19 19 20 20 20 20 20 20 20 19 19 19 19 19 19 19 19 19 19 19 20 20 20 20 21 21 22 22 22 22 23 23 23 23 23 23 23 23 24 24 24 23 24 23 23 23 23 23 22 22 21 21 20 20 20 21 22
26 26 25 23 22 21 20 20 19 19 19 19 19 19 19 19 19 19 18 18 18 18 18 18 18 18 18 19 19 19 19 19 19 19 20 20 21 21 21 22 22 23 23 23 23 24 24 24 24 24 24 24 24 24 24 24 24 24 24 23 23 22 22 22 21 21 21 22 22
25 25 24 23 22 21 20 19 19 18 18 18 18 18 18 18 18 18 17 17 17 17 17 17 17 18 18 18 18 18 18 18 18 19 19 20 20 21 21 22 22 23 23 24 24 25 25 25 25 25 25 26 26 25 25 25 25 25 25 24 24 24 23 23 23 22 22 22 22
24 24 23 22 21 21 20 19 19 18 18 18 18 18 18 17 17 17 17 17 17 17 17 17 17 17 17 17 17 17 17 18 18 18 19 19 20 21 22 22 23 23 24 25 25 26 26 26 26 27 27 27 27 26 26 26 26 26 26 25 25 25 24 24 24 24 24 24 23
23 23 22 21 21 20 19 19 18 18 18 18 18 17 17 17 17 17 17 17 16 16 16 16 16 16 16 16 16 16 17 17 17 18 18 19 20 21 22 22 23 24 25 25 26 27 27 27 27 28 28 28 27 27 27 27 27 27 27 26 26 26 25 25 25 25 25 25 25
22 22 21 21 20 19 19 18 18 18 18 18 17 17 17 17 17 17 16 16 16 16 15 15 15 15 15 15 15 15 16 16 17 18 19 19 20 21 22 23 23 24 25 25 26 27 28 28 28 28 29 29 28 28 28 28 28 27 27 27 27 26 26 26 26 26 26 26 25
22 21 20 20 19 19 18 18 18 18 18 18 17 17 17 17 17 16 16 16 15 15 14 14 14 14 14 14 14 15 15 16 17 18 18 19 20 21 22 23 23 24 25 26 26 27 28 28 29 29 29 29 29 29 29 28 28 28 27 27 27 27 27 27 27 26 26 26 25
20 20 19 19 18 18 18 18 18 18 18 18 17 17 17 17 16 16 16 15 15 14 13 13 13 13 13 13 14 15 15 16 17 17 18 19 20 21 22 23 24 24 25 26 26 27 28 28 29 29 30 30 30 29 29 29 28 28 27 27 27 27 27 27 26 26 25 25 25
19 19 18 18 18 18 18 18 18 18 18 18 18 17 17 17 16 16 15 15 14 13 13 13 12 13 13 14 14 15 15 16 17 17 18 19 20 21 22 23 24 24 25 26 27 27 28 28 29 29 30 30 30 30 29 29 28 28 27 27 27 26 26 26 25 25 25 24 24
18 18 18 18 18 18 19 19 19 19 18 18 18 18 17 17 16 16 15 14 14 13 13 13 13 13 14 14 15 15 16 16 17 17 18 19 20 21 22 23 24 25 26 26 27 28 28 29 30 30 30 30 30 30 29 29 28 27 27 26 26 25 25 25 24 24 23 23 23
18 18 18 18 19 19 19 19 19 19 19 19 18 18 17 17 16 16 15 14 14 14 14 14 14 15 15 15 16 16 16 17 17 18 19 20 20 21 22 23 24 25 26 27 28 29 29 30 30 31 31 31 30 29 28 28 27 26 26 25 25 24 24 23 23 22 22 22 22
18 18 19 19 19 20 20 20 20 19 19 19 18 18 17 17 16 16 15 15 15 15 15 15 16 16 16 16 16 17 17 18 19 19 20 21 22 22 23 24 25 26 27 28 29 29 30 30 31 31 32 31 30 28 27 26 26 25 25 24 24 23 22 22 22 21 21 21 21
19 19 20 20 20 20 20 20 20 20 19 19 19 18 18 17 17 16 16 16 15 16 16 16 16 17 17 17 17 18 18 19 20 21 21 22 23 23 24 25 26 27 28 28 29 29 29 30 30 30 30 30 29 27 26 25 24 24 24 23 23 22 21 21 20 20 20 20 20
20 20 20 21 21 21 20 20 20 20 20 19 19 19 18 18 17 17 17 16 17 17 17 17 17 17 18 18 19 19 19 20 21 22 22 23 24 24 25 26 27 27 28 29 29 28 28 28 27 27 27 27 26 25 23 23 23 23 22 22 21 21 20 20 20 20 20 19 18
21 21 21 21 21 21 21 21 20 20 20 20 19 19 19 18 18 18 18 18 18 18 18 18 18 18 19 19 20 20 20 21 22 22 23 24 24 25 25 26 27 28 28 28 28 27 26 25 24 23 23 24 23 22 21 21 21 21 20 20 19 19 19 19 19 18 17 15 14
21 22 22 22 21 21 21 21 21 21 20 20 20 20 19 19 19 19 19 19 19 19 19 19 19 19 20 20 20 21 21 22 22 23 24 24 25 25 26 26 27 27 27 26 25 24 23 22 21 20 20 20 20 19 18 19 19 19 18 18 18 18 17 16 15 14 13 12 12
22 22 22 22 22 22 22 22 21 21 21 21 20 20 20 20 20 20 20 20 20 20 20 20 20 21 21 21 21 22 22 23 23 24 24 24 25 25 25 26 26 26 25 24 23 21 20 19 17 17 17 18 17 16 15 16 16 16 17 17 16 16 15 14 13 12 12 12 12
22 22 22 22 22 22 22 22 22 22 21 21 21 21 21 21 21 21 21 21 21 21 21 21 21 22 22 22 22 22 23 23 23 24 24 24 24 24 24 24 24 24 23 21 20 19 18 16 15 16 16 16 14 13 13 13 14 14 14 14 14 13 13 13 13 13 13 13 13
22 22 22 23 23 23 23 23 23 22 22 22 22 22 22 22 22 22 22 22 23 22 22 22 23 23 22 22 23 23 23 23 23 23 23 23 23 23 23 23 22 21 20 18 17 16 15 14 15 16 16 14 12 12 12 12 13 13 13 13 12 12 12 13 13 13 13 13 13
22 22 23 23 23 23 23 23 23 23 23 23 23 23 23 23 23 23 23 24 23 23 23 24 23 23 23 23 23 23 23 24 23 23 23 23 22 21 21 21 20 19 17 16 15 14 13 14 16 16 14 12 11 11 12 12 13 13 13 13 13 13 13 13 13 13 13 13 13
22 22 23 23 23 24 24 24 24 24 24 23 23 23 23 23 23 24 24 25 24 24 24 24 24 24 24 23 23 23 24 24 23 22 22 21 21 20 19 18 18 17 15 14 13 12 13 15 16 15 13 11 11 12 12 13 13 14 14 14 14 14 14 13 13 13 13 13 13
22 23 23 24 24 24 25 25 25 25 24 24 24 24 24 24 24 25 25 25 25 25 25 25 25 25 24 24 23 23 23 23 23 22 21 20 20 19 18 17 16 15 14 12 11 12 14 16 15 14 13 12 12 13 13 14 14 15 15 15 14 14 14 14 13 13 13 13 12
22 23 23 24 25 25 26 26 26 25 25 25 25 24 24 24 25 25 26 26 26 26 26 25 25 25 25 24 24 23 23 23 22 21 20 19 19 18 17 16 14 13 12 11 11 13 15 16 15 14 13 13 13 14 14 15 15 15 15 15 15 14 14 14 13 13 13 13 13
22 23 24 24 25 26 26 27 27 26 26 26 25 25 25 25 26 26 27 27 27 26 26 25 25 25 25 25 24 23 22 22 21 20 19 19 18 18 16 15 13 12 11 11 13 14 16 16 15 14 14 14 14 15 15 15 15 15 15 15 14 14 13 13 13 13 12 12 12
Wind_Direction
228 226 225 226 227 227 227 225 225 225 223 221 237 248 250 249 244 238 234 230 228 226 224 224 224 224 224 225 226 227 228 230 231 232 232 233 235 239 245 248 250 251 253 254 256 257 258 259 260 261 263 264 265 265 266 267 267 268 268 268 267 267 267 267 268 269 270 270 271
228 227 229 234 238 242 246 245 236 218 191 166 181 232 240 242 242 240 236 232 229 227 227 227 226 226 226 227 229 230 231 233 235 237 238 240 243 246 248 249 250 251 253 255 257 258 259 260 262 263 264 264 265 266 267 267 268 268 268 267 267 267 266 266 267 267 268 269 269
229 227 228 232 246 277 288 283 259 222 191 173 177 192 202 210 220 227 230 229 228 227 226 225 225 225 226 228 230 232 234 235 238 240 242 244 246 248 248 247 247 249 254 257 258 259 260 261 262 263 264 265 266 267 268 269 270 270 269 269 268 268 267 266 267 267 267 267 267
234 226 219 218 240 278 287 285 272 243 218 204 198 198 202 207 213 218 221 222 222 222 221 220 221 222 223 225 228 232 235 237 239 241 243 246 248 248 248 247 248 252 256 259 259 259 260 261 262 264 265 267 269 270 272 273 273 273 273 272 272 271 270 269 268 268 267 266 266
238 229 219 218 226 224 227 244 253 245 235 226 224 222 220 215 214 215 216 216 217 218 218 218 218 219 219 221 224 229 234 239 242 244 247 249 249 249 248 248 251 255 258 258 259 259 260 262 263 265 267 269 271 273 274 275 275 275 275 274 274 273 272 272 270 269 268 267 266
240 238 236 235 223 210 206 211 224 235 238 238 236 233 229 223 218 216 216 217 218 220 220 221 221 221 221 222 225 230 237 242 246 248 249 248 247 247 248 251 255 258 258 259 259 260 261 262 264 267 269 271 273 274 274 275 275 275 275 275 275 274 274 273 272 271 270 268 267
241 245 247 245 231 219 216 219 224 230 236 240 240 238 235 229 224 221 221 223 226 228 230 230 230 229 229 230 232 237 242 246 248 247 246 245 246 248 253 257 258 259 259 259 259 261 262 264 266 268 270 272 273 274 274 275 275 275 276 276 275 275 274 274 273 271 270 268 267
240 242 244 241 234 227 225 226 228 231 235 238 239 239 235 230 226 224 226 229 233 237 238 239 238 238 239 241 244 246 247 247 245 243 243 245 248 253 257 259 259 259 259 259 260 262 264 266 268 270 271 272 273 274 275 275 275 276 276 276 275 275 274 273 272 271 269 268 267
238 239 240 238 235 232 231 230 231 232 234 235 236 235 234 231 230 231 232 235 239 241 242 242 244 245 246 247 248 248 246 244 242 242 245 250 255 257 258 258 258 258 259 260 261 263 265 267 269 270 271 272 273 274 274 275 275 276 275 275 275 275 274 272 271 270 269 268 267
239 239 238 237 235 234 233 232 232 232 232 233 234 235 235 236 238 241 243 244 245 245 244 245 245 244 243 243 243 243 242 242 244 249 254 257 258 258 257 257 257 258 259 261 263 264 266 267 268 270 270 271 272 273 274 274 274 275 275 275 274 274 273 272 271 270 268 267 266
241 241 240 238 237 236 235 234 234 234 234 236 237 239 242 244 246 248 249 249 248 246 245 244 241 239 237 237 239 242 246 251 256 259 260 258 257 257 257 257 258 259 261 262 264 265 266 268 268 269 270 271 272 272 273 273 274 274 274 275 275 274 273 272 271 269 268 266 265
243 243 242 242 241 240 239 240 240 241 243 244 246 247 248 249 250 250 250 249 247 245 244 242 240 240 242 244 248 253 257 260 260 259 257 256 256 256 257 258 259 261 262 264 265 266 267 268 269 270 271 271 272 273 273 274 274 275 275 276 276 275 275 273 272 270 268 267 265
245 245 245 244 244 244 244 245 246 247 248 250 251 251 252 252 251 251 250 250 249 249 248 249 251 255 258 260 261 261 260 259 257 255 254 255 256 257 258 260 261 263 264 265 267 268 269 270 271 271 271 272 273 273 274 275 275 276 277 277 277 277 276 275 273 272 270 269 268
247 247 247 247 247 247 248 248 249 250 250 251 251 252 253 253 253 252 252 252 253 255 256 257 259 261 262 262 260 258 255 253 253 253 253 255 257 259 260 262 263 265 266 267 269 270 271 272 273 273 273 273 274 274 275 276 276 277 278 279 278 278 276 275 274 272 271 269 270
248 249 250 250 250 250 250 250 251 251 251 251 251 252 252 253 253 253 252 253 253 254 256 256 256 256 255 254 253 251 251 250 251 253 255 257 259 261 262 264 265 266 267 269 270 271 273 274 274 275 275 275 275 275 275 276 277 278 278 278 278 277 276 274 273 272 270 269 269
249 250 251 251 252 252 251 251 251 251 251 251 251 251 251 251 251 250 250 250 249 249 249 249 249 248 248 247 247 248 249 250 252 255 257 259 261 263 264 265 267 268 269 270 272 273 274 274 275 275 275 275 275 275 275 276 276 277 277 276 276 275 275 273 271 269 268 267 266
249 250 251 252 252 252 252 252 251 251 250 249 249 248 247 247 246 245 245 244 244 243 243 243 243 243 244 245 246 248 251 253 256 258 261 262 264 265 266 267 269 270 271 272 273 274 274 274 274 274 274 274 274 274 274 274 274 274 274 273 273 273 273 271 268 265 262 261 260
248 250 251 252 253 253 254 253 252 250 248 247 246 244 242 241 240 239 239 238 238 238 239 240 241 243 245 247 250 252 254 257 260 262 264 265 267 268 269 270 271 272 273 273 274 274 273 273 273 273 273 272 272 272 272 271 271 271 270 270 269 269 269 267 264 261 258 256 256
248 250 251 252 254 254 255 254 251 249 246 244 241 240 238 236 236 235 235 236 236 238 240 242 244 247 250 252 255 257 259 262 264 266 267 268 270 271 271 272 273 273 274 274 274 274 273 272 272 271 270 270 269 269 269 268 268 267 267 266 265 265 264 263 261 259 257 256 257
248 250 251 253 254 254 254 252 249 246 243 240 238 236 235 234 234 235 236 237 239 242 244 247 250 253 256 258 261 263 265 266 268 269 270 271 272 273 273 274 274 274 274 274 274 273 273 272 271 270 269 268 267 266 266 265 265 264 263 263 262 261 261 260 260 259 259 258 259
248 250 251 253 253 253 252 249 246 242 239 236 234 234 234 234 235 237 239 242 244 247 249 252 255 257 259 262 264 266 268 269 270 272 273 274 274 275 275 275 275 275 275 275 275 274 273 272 271 269 268 267 266 265 264 263 262 261 261 260 260 259 259 259 259 260 260 260 260
248 250 251 252 252 251 249 246 242 238 235 234 233 233 235 237 239 241 243 246 248 250 253 254 256 258 260 263 265 267 269 271 272 274 274 275 276 276 276 276 276 276 276 275 275 274 273 272 271 269 268 266 265 264 262 261 260 260 259 259 259 259 259 259 260 260 261 261 262
249 249 250 250 249 247 244 241 238 235 234 233 234 235 237 239 242 244 246 248 249 250 252 253 255 257 260 262 265 267 270 272 274 275 276 277 277 277 277 277 277 277 276 275 274 273 272 271 270 269 267 266 264 263 261 260 260 259 259 259 259 259 260 260 261 261 262 263 263
248 248 248 246 244 242 239 237 235 234 234 234 236 238 239 241 243 244 245 246 247 247 248 250 253 255 259 262 265 268 271 273 275 277 277 278 278 278 278 278 278 277 277 276 275 274 272 271 269 268 267 266 264 262 261 260 259 259 259 259 260 260 260 261 262 262 263 264 264
246 245 244 241 239 237 235 234 234 234 234 236 237 239 240 240 241 241 241 241 241 242 244 246 250 253 257 261 264 267 270 272 274 276 277 279 279 280 281 281 281 281 280 279 278 276 275 273 271 269 267 266 264 263 262 261 260 260 260 260 260 261 262 262 263 264 264 264 264
243 241 239 236 235 233 233 233 233 234 235 236 237 237 237 237 236 236 235 235 236 238 240 243 247 251 254 258 261 264 267 270 273 276 278 280 282 284 285 286 286 285 285 284 282 281 279 276 274 271 269 267 265 263 262 261 261 261 261 261 261 262 263 264 264 265 265 264 263
239 237 235 233 232 232 232 233 234 234 234 235 235 234 233 232 231 231 231 231 233 236 239 242 246 249 253 257 260 264 267 271 275 278 281 284 286 288 289 290 290 289 288 287 286 284 282 279 277 274 271 268 266 263 262 261 261 262 262 262 262 263 263 264 264 264 263 263 262
237 235 233 233 232 232 233 233 233 233 233 232 231 230 229 228 227 228 228 230 233 237 241 244 248 252 256 260 264 269 273 276 280 283 286 288 289 291 291 292 291 290 289 288 287 285 283 280 278 276 273 270 267 265 263 262 262 262 262 263 263 263 263 263 262 261 261 261 261
237 235 234 234 234 234 234 234 233 232 230 229 228 227 226 225 226 227 229 233 236 241 245 250 254 258 262 267 270 274 278 281 284 286 288 290 292 292 292 292 291 290 289 287 286 284 283 280 278 276 275 272 269 266 264 262 262 262 262 263 263 263 262 261 260 259 258 258 259
238 237 237 236 236 236 235 233 232 230 228 227 226 225 225 226 227 230 233 237 241 246 251 255 260 264 269 272 275 277 280 283 286 288 290 291 292 293 293 292 291 290 289 288 286 285 283 280 278 276 275 273 270 267 264 262 261 261 261 261 261 260 259 257 256 256 256 256 257
240 239 238 238 237 236 235 233 231 229 227 226 225 225 226 228 230 233 237 241 246 250 255 260 264 269 272 274 277 279 282 284 287 289 291 292 293 293 293 292 292 291 290 289 288 286 283 280 278 275 273 272 270 268 265 262 260 259 259 258 257 255 254 253 253 253 254 255 254
241 240 240 239 238 236 234 232 230 228 227 226 226 227 229 232 234 238 241 245 249 254 258 262 266 270 273 275 278 280 283 286 288 291 292 293 294 294 294 294 293 293 292 291 289 287 285 281 278 274 270 268 267 265 262 259 257 256 254 252 251 250 250 250 251 251 251 249 247
242 241 240 239 237 235 234 232 231 229 228 228 229 231 233 236 238 242 245 249 252 256 260 264 267 271 274 277 280 283 285 288 290 292 293 294 294 295 295 295 295 295 294 292 291 289 286 283 278 271 264 262 262 261 258 255 253 250 248 246 245 245 245 245 245 243 240 237 235
242 241 239 238 236 235 234 232 232 231 231 231 232 234 237 239 242 245 248 252 255 258 261 264 268 272 275 278 282 285 288 290 292 293 294 294 294 295 296 296 296 295 294 293 291 289 287 282 274 263 257 258 259 258 255 251 247 244 242 241 240 239 238 235 233 231 229 228 228
242 241 239 237 236 235 234 233 233 233 233 234 236 238 241 243 246 249 251 254 257 259 262 266 269 273 276 280 283 286 289 290 292 293 293 294 294 295 296 296 296 295 294 292 290 288 285 278 266 257 255 258 257 253 248 244 241 239 237 235 233 230 228 226 225 225 225 225 225
243 242 240 239 237 236 235 235 235 235 236 237 239 241 244 246 249 251 254 256 259 261 264 267 270 274 277 281 284 287 289 291 292 292 293 293 293 294 295 295 295 294 292 289 286 284 279 270 260 258 259 258 252 244 238 234 232 231 229 227 223 220 219 219 221 222 223 223 224
246 244 243 241 239 238 238 237 237 238 239 240 242 244 247 249 251 253 256 258 261 263 266 269 272 275 279 282 286 288 290 291 292 292 292 292 292 292 293 293 292 290 287 284 281 277 269 261 259 260 259 253 242 233 228 225 224 223 222 219 215 215 216 218 220 221 221 221 222
249 248 247 245 244 242 241 241 241 241 242 244 245 247 249 251 253 255 258 260 262 265 267 270 273 276 279 283 285 288 290 291 291 291 290 290 289 289 289 288 286 284 281 277 272 265 258 255 258 259 255 245 233 225 221 221 221 221 219 216 214 214 215 218 219 220 220 220 219
254 252 251 250 249 248 247 247 246 246 247 248 249 251 253 254 256 258 260 261 263 265 267 270 273 276 279 282 285 288 290 291 291 290 289 287 286 284 283 280 278 275 272 268 260 253 250 253 256 255 249 239 230 224 221 220 221 220 219 216 215 214 215 217 218 218 218 217 216
257 256 255 255 254 254 253 253 253 252 252 253 254 255 256 257 258 260 261 262 263 265 267 270 273 276 279 282 285 287 288 290 289 288 286 283 281 280 278 274 270 266 262 256 248 245 247 252 253 250 243 236 230 226 222 219 220 220 218 216 214 214 214 215 215 215 214 213 212
259 258 257 256 256 257 257 257 257 257 257 258 258 259 259 259 260 260 260 262 263 265 267 270 272 275 278 281 284 286 287 287 287 285 282 279 278 276 273 269 264 259 252 244 240 242 246 250 249 245 239 235 231 227 222 219 219 218 216 214 213 212 212 212 212 212 211 210 209
Height
1509 1509 1510 1511 1512 1512 1512 1513 1514 1514 1515 1515 1516 1517 1518 1520 1521 1521 1522 1522 1524 1525 1525 1525 1525 1525 1526 1526 1526 1527 1527 1528 1529 1529 1530 1530 1531 1532 1533 1534 1534 1535 1535 1536 1536 1536 1536 1537 1537 1537 1537 1537 1537 1537 1537 1537 1537 1537 1537 1537 1537 1537 1536 1536 1536 1536 1536 1536 1536
1508 1508 1509 1510 1511 1511 1512 1512 1513 1514 1515 1515 1516 1518 1520 1521 1522 1522 1522 1523 1524 1524 1524 1524 1524 1524 1524 1524 1525 1525 1526 1527 1527 1528 1529 1530 1531 1531 1532 1532 1533 1533 1534 1534 1535 1535 1535 1536 1536 1536 1536 1536 1536 1536 1536 1536 1536 1535 1535 1535 1535 1535 1534 1534 1534 1534 1534 1534 1534
1506 1507 1508 1509 1510 1511 1512 1513 1513 1514 1514 1514 1515 1517 1520 1521 1521 1521 1521 1522 1522 1523 1522 1522 1522 1522 1522 1522 1523 1524 1525 1525 1526 1527 1528 1529 1530 1530 1531 1531 1531 1531 1532 1533 1533 1534 1534 1534 1534 1534 1534 1534 1534 1533 1533 1533 1533 1533 1532 1532 1532 1532 1532 1532 1532 1532 1532 1532 1532
1505 1506 1506 1507 1507 1508 1510 1511 1513 1514 1514 1512 1512 1513 1514 1516 1517 1517 1518 1519 1520 1521 1521 1520 1520 1519 1519 1520 1521 1522 1523 1524 1525 1526 1527 1528 1529 1529 1529 1530 1530 1531 1531 1532 1532 1532 1532 1532 1532 1532 1532 1532 1531 1531 1531 1531 1531 1531 1530 1530 1530 1530 1530 1530 1530 1530 1530 1530 1530
1504 1504 1503 1503 1504 1506 1508 1511 1512 1511 1511 1511 1511 1511 1511 1512 1512 1513 1515 1517 1518 1519 1520 1519 1518 1517 1516 1517 1518 1520 1521 1523 1524 1525 1526 1527 1527 1528 1527 1526 1527 1529 1530 1530 1530 1530 1530 1530 1530 1530 1530 1530 1529 1529 1529 1529 1529 1528 1528 1528 1528 1528 1528 1528 1528 1528 1528 1528 1528
1502 1502 1501 1501 1502 1503 1504 1506 1508 1510 1510 1510 1509 1509 1510 1511 1511 1512 1513 1515 1517 1518 1517 1517 1516 1516 1516 1516 1517 1519 1521 1522 1523 1524 1525 1526 1525 1525 1525 1526 1527 1527 1528 1528 1528 1528 1528 1528 1528 1528 1528 1527 1527 1527 1527 1527 1527 1526 1526 1526 1526 1526 1526 1526 1526 1526 1526 1526 1526
1501 1502 1502 1503 1503 1504 1505 1505 1506 1507 1507 1508 1507 1508 1509 1511 1511 1512 1513 1514 1515 1515 1515 1515 1514 1514 1515 1515 1516 1518 1520 1521 1522 1522 1523 1523 1524 1524 1524 1525 1525 1525 1526 1526 1526 1526 1526 1526 1526 1526 1526 1526 1526 1525 1525 1525 1525 1525 1525 1525 1525 1525 1524 1524 1524 1524 1524 1524 1524
1500 1501 1501 1501 1502 1503 1504 1504 1505 1505 1506 1506 1507 1508 1509 1510 1511 1512 1512 1513 1512 1513 1513 1514 1514 1513 1514 1515 1516 1517 1518 1519 1519 1520 1520 1521 1522 1522 1523 1523 1523 1523 1524 1524 1524 1524 1524 1524 1524 1524 1524 1524 1523 1523 1523 1523 1523 1523 1523 1523 1523 1523 1522 1522 1522 1522 1522 1522 1522
1498 1499 1499 1500 1501 1501 1502 1503 1503 1504 1505 1505 1506 1507 1508 1509 1510 1510 1510 1510 1511 1511 1512 1512 1513 1513 1514 1514 1515 1516 1516 1516 1516 1517 1517 1518 1520 1521 1521 1521 1521 1521 1522 1522 1522 1522 1522 1522 1522 1522 1522 1522 1522 1521 1521 1521 1521 1521 1521 1521 1521 1521 1521 1521 1521 1521 1520 1520 1520
1496 1497 1498 1498 1499 1500 1501 1501 1502 1503 1503 1504 1505 1506 1507 1507 1508 1508 1508 1508 1509 1510 1510 1511 1512 1512 1512 1513 1513 1513 1513 1513 1514 1515 1516 1517 1518 1519 1519 1520 1520 1520 1520 1520 1520 1520 1520 1520 1520 1520 1520 1520 1520 1520 1519 1519 1519 1519 1519 1519 1519 1519 1519 1519 1519 1519 1519 1518 1518
1496 1496 1496 1497 1498 1499 1499 1500 1501 1501 1502 1503 1503 1504 1505 1506 1506 1506 1507 1507 1507 1508 1509 1509 1510 1510 1510 1511 1511 1511 1511 1512 1513 1514 1515 1516 1516 1517 1517 1517 1518 1518 1518 1518 1518 1518 1518 1518 1518 1518 1518 1518 1518 1518 1517 1517 1517 1517 1517 1517 1517 1517 1517 1517 1517 1517 1517 1517 1517
1495 1495 1496 1497 1497 1498 1499 1500 1500 1501 1501 1502 1502 1502 1503 1504 1505 1505 1506 1506 1506 1506 1507 1508 1507 1507 1508 1509 1510 1510 1511 1511 1512 1513 1514 1514 1515 1515 1516 1516 1516 1516 1516 1516 1516 1516 1516 1516 1516 1516 1516 1516 1516 1516 1516 1516 1515 1515 1515 1515 1515 1515 1515 1515 1515 1515 1515 1515 1515
1493 1494 1495 1496 1496 1497 1498 1499 1499 1500 1500 1501 1501 1501 1501 1502 1502 1503 1504 1504 1504 1505 1506 1506 1506 1506 1506 1506 1508 1509 1510 1511 1511 1512 1512 1513 1513 1514 1514 1514 1514 1514 1514 1514 1514 1514 1514 1514 1515 1515 1515 1514 1514 1514 1514 1514 1513 1513 1513 1513 1513 1513 1513 1513 1513 1513 1513 1513 1512
1491 1492 1493 1494 1495 1496 1496 1497 1497 1498 1498 1499 1499 1499 1499 1500 1501 1501 1502 1502 1503 1503 1504 1504 1505 1505 1505 1506 1507 1508 1509 1510 1510 1511 1511 1511 1512 1512 1512 1512 1512 1512 1512 1512 1512 1512 1512 1512 1512 1512 1512 1512 1512 1512 1512 1512 1511 1511 1511 1511 1511 1511 1511 1511 1511 1511 1511 1511 1511
1490 1491 1492 1493 1494 1494 1495 1496 1496 1496 1496 1497 1497 1497 1498 1498 1499 1499 1500 1500 1501 1501 1502 1502 1503 1504 1504 1505 1506 1507 1507 1508 1509 1509 1510 1510 1510 1510 1511 1511 1511 1511 1511 1511 1511 1511 1511 1511 1511 1511 1511 1511 1511 1511 1510 1510 1510 1510 1510 1510 1510 1510 1510 1509 1509 1509 1509 1509 1510
1489 1490 1490 1491 1492 1493 1494 1494 1494 1495 1495 1495 1495 1496 1496 1496 1497 1497 1498 1499 1499 1500 1500 1501 1501 1502 1503 1504 1505 1506 1506 1507 1507 1508 1508 1508 1508 1508 1509 1509 1509 1509 1509 1509 1509 1509 1509 1509 1509 1509 1509 1509 1509 1509 1509 1509 1508 1508 1508 1508 1508 1508 1508 1508 1508 1508 1508 1508 1508
1487 1488 1489 1490 1491 1491 1492 1492 1493 1493 1493 1494 1494 1494 1495 1495 1496 1496 1497 1497 1498 1498 1499 1500 1501 1501 1502 1503 1504 1504 1505 1505 1506 1506 1506 1506 1506 1507 1507 1507 1507 1507 1507 1507 1507 1507 1508 1507 1507 1507 1507 1507 1507 1507 1507 1507 1507 1507 1506 1506 1506 1506 1506 1506 1506 1506 1506 1506 1507
1486 1487 1488 1489 1489 1490 1491 1491 1491 1491 1492 1492 1493 1493 1494 1494 1495 1495 1496 1496 1497 1497 1498 1499 1500 1501 1501 1502 1502 1503 1503 1504 1504 1504 1505 1505 1505 1505 1505 1506 1506 1506 1506 1506 1506 1506 1506 1506 1506 1506 1506 1505 1505 1505 1505 1505 1505 1505 1505 1505 1505 1505 1505 1505 1505 1505 1505 1505 1505
1485 1486 1486 1487 1488 1489 1489 1490 1490 1490 1491 1491 1491 1492 1492 1493 1494 1494 1495 1496 1496 1497 1497 1498 1499 1499 1500 1500 1501 1501 1502 1502 1502 1503 1503 1503 1503 1504 1504 1504 1504 1504 1504 1504 1504 1504 1504 1504 1504 1504 1504 1504 1504 1503 1503 1503 1503 1503 1503 1503 1503 1503 1503 1503 1503 1503 1503 1503 1504
1484 1485 1485 1486 1487 1487 1488 1488 1489 1489 1490 1490 1491 1491 1491 1492 1493 1493 1494 1495 1495 1496 1496 1497 1497 1498 1498 1499 1499 1500 1500 1501 1501 1501 1502 1502 1502 1502 1502 1502 1502 1502 1502 1502 1502 1502 1502 1502 1502 1502 1502 1502 1501 1501 1501 1501 1501 1501 1501 1501 1501 1501 1501 1501 1501 1502 1502 1502 1502
1483 1483 1484 1485 1485 1486 1486 1487 1487 1488 1488 1489 1489 1490 1491 1491 1492 1492 1493 1493 1494 1495 1495 1496 1496 1496 1497 1497 1498 1498 1499 1499 1500 1500 1500 1501 1501 1501 1501 1501 1501 1501 1501 1501 1500 1500 1500 1500 1500 1500 1500 1500 1500 1500 1500 1500 1500 1500 1500 1500 1500 1500 1500 1500 1500 1500 1500 1500 1501
1481 1482 1483 1483 1484 1484 1485 1485 1486 1486 1487 1487 1488 1489 1490 1490 1491 1491 1492 1492 1493 1493 1494 1495 1495 1496 1496 1496 1497 1497 1497 1498 1498 1498 1499 1499 1499 1499 1499 1499 1499 1499 1499 1499 1499 1498 1498 1498 1498 1498 1498 1498 1498 1498 1498 1498 1498 1498 1498 1498 1498 1498 1498 1498 1498 1498 1498 1498 1499
1480 1481 1481 1482 1482 1483 1483 1484 1484 1485 1486 1486 1487 1488 1489 1489 1490 1490 1491 1491 1492 1492 1493 1494 1494 1495 1495 1495 1496 1496 1496 1496 1497 1497 1497 1497 1497 1497 1497 1497 1497 1497 1497 1497 1497 1497 1496 1496 1496 1496 1496 1496 1496 1496 1496 1496 1496 1496 1496 1496 1496 1496 1496 1496 1496 1496 1496 1496 1497
1479 1480 1480 1481 1481 1481 1482 1483 1483 1484 1485 1486 1486 1487 1488 1488 1489 1489 1490 1491 1491 1491 1492 1493 1493 1493 1494 1494 1495 1495 1495 1495 1496 1496 1496 1496 1496 1496 1496 1496 1496 1496 1495 1495 1495 1495 1494 1494 1494 1494 1493 1493 1493 1493 1494 1494 1494 1494 1494 1494 1494 1494 1494 1494 1494 1494 1495 1495 1495
1478 1478 1479 1479 1480 1481 1481 1482 1482 1483 1484 1485 1486 1486 1487 1487 1488 1488 1489 1490 1490 1491 1491 1492 1492 1492 1493 1493 1493 1494 1494 1494 1494 1494 1494 1494 1494 1494 1494 1494 1493 1493 1493 1493 1493 1492 1492 1492 1491 1491 1491 1491 1491 1491 1491 1491 1491 1492 1492 1492 1492 1492 1492 1492 1492 1492 1493 1493 1493
1476 1477 1478 1478 1479 1480 1480 1481 1482 1483 1483 1484 1485 1485 1486 1486 1487 1487 1488 1489 1489 1490 1490 1491 1491 1491 1492 1492 1492 1492 1493 1493 1493 1493 1493 1493 1492 1492 1492 1491 1491 1491 1491 1491 1490 1490 1490 1489 1489 1489 1489 1489 1489 1489 1489 1489 1489 1490 1490 1490 1490 1490 1490 1490 1490 1491 1491 1491 1491
1476 1476 1477 1477 1478 1479 1480 1481 1481 1482 1482 1483 1484 1484 1485 1486 1486 1486 1487 1488 1488 1489 1489 1490 1490 1491 1491 1491 1491 1491 1491 1491 1491 1491 1491 1491 1491 1491 1490 1490 1489 1489 1489 1488 1488 1487 1487 1486 1486 1486 1486 1486 1486 1486 1487 1487 1487 1487 1488 1488 1488 1488 1488 1489 1489 1489 1489 1489 1489
1475 1476 1476 1477 1478 1478 1479 1480 1480 1481 1481 1482 1483 1483 1484 1485 1485 1486 1486 1487 1487 1488 1488 1489 1489 1489 1490 1490 1490 1490 1490 1490 1490 1489 1489 1489 1489 1489 1488 1488 1487 1487 1486 1486 1485 1485 1484 1484 1484 1483 1483 1483 1484 1484 1485 1485 1485 1485 1486 1486 1486 1486 1486 1486 1486 1487 1487 1487 1487
1474 1475 1475 1476 1477 1477 1478 1479 1480 1480 1481 1481 1482 1482 1483 1484 1484 1485 1485 1486 1486 1487 1487 1487 1488 1488 1488 1488 1488 1488 1488 1488 1488 1487 1487 1487 1487 1486 1486 1486 1486 1485 1484 1484 1483 1482 1482 1482 1481 1481 1481 1481 1481 1482 1482 1483 1483 1483 1483 1484 1484 1484 1484 1485 1485 1485 1485 1485 1485
1473 1474 1475 1475 1476 1476 1477 1478 1479 1479 1480 1481 1481 1481 1482 1483 1483 1484 1484 1485 1485 1486 1486 1486 1486 1486 1486 1486 1486 1486 1486 1486 1486 1486 1486 1485 1485 1485 1484 1484 1483 1483 1482 1481 1481 1480 1480 1479 1479 1478 1478 1478 1478 1479 1480 1481 1481 1481 1481 1481 1482 1482 1482 1483 1483 1483 1483 1483 1484
1472 1473 1473 1474 1475 1476 1476 1477 1478 1478 1479 1480 1480 1481 1481 1482 1482 1483 1483 1484 1484 1484 1485 1485 1485 1485 1485 1485 1485 1485 1485 1485 1484 1484 1484 1483 1483 1482 1482 1481 1481 1480 1479 1479 1478 1477 1477 1476 1476 1476 1476 1476 1476 1477 1478 1478 1479 1479 1479 1480 1480 1480 1481 1481 1481 1482 1482 1482 1482
1471 1472 1472 1473 1474 1475 1476 1476 1477 1477 1478 1479 1479 1480 1480 1481 1481 1482 1482 1482 1483 1483 1483 1483 1483 1483 1483 1483 1483 1483 1483 1483 1482 1482 1482 1481 1481 1480 1480 1479 1479 1478 1477 1476 1476 1475 1475 1474 1474 1474 1474 1474 1474 1475 1476 1476 1477 1477 1477 1478 1478 1479 1479 1480 1480 1480 1481 1481 1481
1470 1471 1471 1472 1473 1474 1474 1475 1476 1476 1477 1478 1478 1479 1479 1480 1480 1481 1481 1481 1481 1482 1482 1482 1482 1482 1482 1482 1482 1481 1481 1481 1481 1480 1480 1479 1479 1478 1478 1477 1476 1476 1475 1474 1474 1473 1473 1472 1472 1472 1472 1472 1472 1473 1474 1475 1475 1476 1476 1476 1477 1477 1478 1478 1479 1479 1480 1480 1480
1469 1469 1470 1471 1472 1472 1473 1474 1475 1475 1476 1476 1477 1478 1478 1479 1479 1480 1480 1480 1480 1481 1481 1481 1481 1481 1480 1480 1480 1480 1479 1479 1479 1478 1478 1477 1476 1476 1476 1475 1474 1474 1473 1472 1472 1471 1471 1471 1471 1471 1471 1471 1471 1472 1473 1473 1474 1474 1475 1475 1476 1476 1476 1477 1477 1478 1479 1479 1480
1468 1468 1469 1470 1471 1471 1472 1473 1473 1474 1475 1476 1476 1476 1477 1477 1478 1478 1479 1479 1479 1479 1479 1479 1479 1479 1479 1478 1478 1478 1478 1477 1477 1476 1476 1475 1475 1474 1474 1473 1472 1472 1471 1471 1471 1470 1470 1470 1470 1470 1470 1470 1471 1471 1472 1472 1472 1473 1473 1474 1474 1475 1476 1476 1476 1477 1478 1478 1479
1466 1467 1468 1469 1469 1470 1471 1471 1472 1473 1474 1474 1475 1475 1476 1476 1477 1477 1477 1477 1477 1477 1477 1477 1477 1477 1477 1477 1476 1476 1476 1475 1475 1474 1474 1473 1473 1472 1472 1471 1471 1470 1470 1469 1469 1469 1469 1469 1469 1469 1469 1470 1470 1471 1471 1471 1471 1472 1472 1473 1473 1474 1475 1475 1476 1476 1477 1478 1478
1466 1466 1467 1467 1468 1469 1470 1470 1471 1471 1472 1473 1473 1474 1475 1475 1475 1476 1476 1476 1476 1476 1476 1476 1476 1475 1475 1475 1475 1474 1474 1473 1473 1472 1472 1471 1471 1471 1470 1470 1469 1469 1469 1468 1468 1468 1468 1468 1468 1468 1468 1469 1469 1470 1470 1470 1471 1471 1472 1472 1473 1473 1474 1474 1475 1476 1476 1477 1477
1464 1465 1466 1466 1467 1467 1468 1469 1470 1470 1471 1472 1472 1473 1473 1474 1474 1474 1474 1474 1474 1474 1474 1474 1474 1474 1473 1473 1473 1472 1472 1471 1471 1471 1470 1470 1470 1469 1469 1469 1468 1468 1467 1467 1467 1467 1467 1467 1467 1467 1468 1468 1469 1469 1469 1470 1470 1471 1471 1471 1472 1472 1473 1474 1474 1475 1476 1476 1477
1463 1464 1464 1465 1465 1466 1467 1467 1468 1469 1470 1470 1471 1471 1472 1472 1472 1472 1472 1472 1472 1472 1472 1472 1472 1472 1471 1471 1471 1471 1470 1470 1469 1469 1468 1468 1468 1468 1468 1467 1467 1466 1466 1466 1466 1466 1466 1466 1466 1466 1467 1467 1468 1468 1468 1469 1469 1470 1470 1471 1471 1472 1472 1473 1474 1474 1475 1476 1476
1461 1462 1463 1463 1464 1464 1465 1466 1466 1467 1468 1469 1469 1470 1470 1471 1471 1470 1470 1470 1470 1470 1470 1470 1470 1470 1470 1469 1469 1469 1468 1468 1467 1467 1467 1467 1466 1466 1466 1466 1466 1466 1465 1465 1466 1466 1465 1465 1466 1466 1466 1467 1467 1467 1467 1468 1468 1469 1470 1470 1471 1471 1472 1472 1473 1474 1474 1475 1476
1460 1461 1461 1461 1462 1463 1463 1464 1465 1466 1466 1467 1468 1468 1469 1469 1468 1468 1468 1468 1468 1468 1468 1468 1468 1468 1467 1467 1467 1467 1467 1466 1466 1466 1465 1465 1465 1465 1465 1465 1465 1465 1465 1465 1465 1465 1464 1464 1465 1465 1466 1466 1466 1466 1467 1467 1468 1468 1469 1469 1470 1471 1471 1472 1472 1473 1474 1475 1475